Time,TemperatureF,DewpointF,PressureIn,WindDirection,WindDirectionDegrees,WindSpeedMPH,WindSpeedGustMPH,Humidity,HourlyPrecipIn,Conditions,Clouds,dailyrainin,SoftwareType,DateUTC
2013-05-17 00:01:00,53.6,47.7,29.97,WNW,293,0.9,4.0,80,0.00,,,0.00,WUHU216HW,2013-05-17 07:01:00,
2013-05-17 00:06:00,53.6,47.7,29.97,West,270,2.2,4.0,80,0.00,,,0.00,WUHU216HW,2013-05-17 07:06:00,
2013-05-17 00:11:00,53.6,47.7,29.96,West,270,1.1,3.8,80,0.00,,,0.00,WUHU216HW,2013-05-17 07:11:00,
2013-05-17 00:16:00,53.6,47.7,29.97,WNW,293,1.1,2.0,80,0.00,,,0.00,WUHU216HW,2013-05-17 07:16:00,
2013-05-17 00:21:00,53.6,48.0,29.96,SSW,203,4.0,4.0,81,0.00,,,0.00,WUHU216HW,2013-05-17 07:21:00,
2013-05-17 00:26:00,53.5,47.8,29.97,WNW,293,2.0,4.0,81,0.00,,,0.00,WUHU216HW,2013-05-17 07:26:00,
2013-05-17 00:31:00,53.5,47.5,29.97,NW,315,1.3,4.0,80,0.00,,,0.00,WUHU216HW,2013-05-17 07:31:00,
2013-05-17 00:36:00,53.5,47.5,29.96,SW,225,1.1,3.8,80,0.00,,,0.00,WUHU216HW,2013-05-17 07:36:00,
2013-05-17 00:41:00,53.5,47.8,29.96,SSW,203,0.9,3.8,81,0.00,,,0.00,WUHU216HW,2013-05-17 07:41:00,
2013-05-17 00:46:00,53.5,47.8,29.96,WSW,248,3.1,5.8,81,0.00,,,0.00,WUHU216HW,2013-05-17 07:46:00,
2013-05-17 00:51:00,53.5,47.8,29.96,West,270,2.0,5.8,81,0.00,,,0.00,WUHU216HW,2013-05-17 07:51:00,
2013-05-17 00:56:00,53.5,47.8,29.96,West,270,2.0,5.1,81,0.00,,,0.00,WUHU216HW,2013-05-17 07:56:00,
2013-05-17 01:01:00,53.3,47.6,29.96,WSW,248,2.2,5.1,81,0.00,,,0.00,WUHU216HW,2013-05-17 08:01:00,
2013-05-17 01:06:00,53.3,47.6,29.96,WSW,248,2.7,4.5,81,0.00,,,0.00,WUHU216HW,2013-05-17 08:06:00,
2013-05-17 01:11:00,53.3,47.6,29.96,West,270,3.1,4.5,81,0.00,,,0.00,WUHU216HW,2013-05-17 08:11:00,
2013-05-17 01:16:00,53.1,47.4,29.96,SW,225,1.1,4.5,81,0.00,,,0.00,WUHU216HW,2013-05-17 08:16:00,
2013-05-17 01:21:00,53.1,47.8,29.96,West,270,0.7,4.0,82,0.00,,,0.00,WUHU216HW,2013-05-17 08:21:00,
2013-05-17 01:26:00,53.1,47.4,29.96,SW,225,0.4,3.8,81,0.00,,,0.00,WUHU216HW,2013-05-17 08:26:00,
2013-05-17 01:31:00,53.1,47.4,29.96,SW,225,0.4,3.8,81,0.00,,,0.00,WUHU216HW,2013-05-17 08:31:00,
2013-05-17 01:36:00,52.9,47.6,29.96,WNW,293,1.1,2.2,82,0.00,,,0.00,WUHU216HW,2013-05-17 08:36:00,
2013-05-17 01:41:00,52.9,47.3,29.96,South,180,5.4,5.4,81,0.00,,,0.00,WUHU216HW,2013-05-17 08:41:00,
2013-05-17 01:46:00,52.7,47.1,29.96,South,180,1.8,5.4,81,0.00,,,0.00,WUHU216HW,2013-05-17 08:46:00,
2013-05-17 01:51:00,52.7,47.1,29.96,South,180,1.1,4.0,81,0.00,,,0.00,WUHU216HW,2013-05-17 08:51:00,
2013-05-17 01:56:00,52.6,46.9,29.96,SW,225,0.4,2.5,81,0.00,,,0.00,WUHU216HW,2013-05-17 08:56:00,
2013-05-17 02:01:00,52.6,46.9,29.96,SW,225,1.1,1.8,81,0.00,,,0.00,WUHU216HW,2013-05-17 09:01:00,
2013-05-17 02:06:00,52.6,47.3,29.95,SW,225,1.3,2.5,82,0.00,,,0.00,WUHU216HW,2013-05-17 09:06:00,
2013-05-17 02:11:00,52.4,47.1,29.95,West,270,0.4,2.5,82,0.00,,,0.00,WUHU216HW,2013-05-17 09:11:00,
2013-05-17 02:16:00,52.4,47.1,29.95,West,270,1.1,4.5,82,0.00,,,0.00,WUHU216HW,2013-05-17 09:16:00,
2013-05-17 02:21:00,52.6,47.3,29.95,West,270,1.1,4.5,82,0.00,,,0.00,WUHU216HW,2013-05-17 09:21:00,
2013-05-17 02:26:00,52.6,47.3,29.95,WSW,248,1.8,1.8,82,0.00,,,0.00,WUHU216HW,2013-05-17 09:26:00,
2013-05-17 02:31:00,52.7,47.4,29.95,WSW,248,1.1,2.5,82,0.00,,,0.00,WUHU216HW,2013-05-17 09:31:00,
2013-05-17 02:36:00,52.7,47.4,29.95,WNW,293,0.4,2.5,82,0.00,,,0.00,WUHU216HW,2013-05-17 09:36:00,
2013-05-17 02:41:00,52.7,47.4,29.95,West,270,0.0,2.0,82,0.00,,,0.00,WUHU216HW,2013-05-17 09:41:00,
2013-05-17 02:46:00,52.9,47.6,29.95,West,270,1.6,1.6,82,0.00,,,0.00,WUHU216HW,2013-05-17 09:46:00,
2013-05-17 02:51:00,52.9,47.3,29.95,SSW,203,0.4,1.6,81,0.00,,,0.00,WUHU216HW,2013-05-17 09:51:00,
2013-05-17 02:56:00,52.9,47.6,29.95,SSW,203,4.9,4.9,82,0.00,,,0.00,WUHU216HW,2013-05-17 09:56:00,
2013-05-17 03:01:00,52.9,47.3,29.95,SSW,203,0.4,4.9,81,0.00,,,0.00,WUHU216HW,2013-05-17 10:01:00,
2013-05-17 03:06:00,52.9,47.3,29.95,SSW,203,0.7,4.7,81,0.00,,,0.00,WUHU216HW,2013-05-17 10:06:00,
2013-05-17 03:11:00,52.9,47.3,29.94,SW,225,1.8,2.2,81,0.00,,,0.00,WUHU216HW,2013-05-17 10:11:00,
2013-05-17 03:16:00,52.7,47.1,29.94,WSW,248,5.4,5.4,81,0.00,,,0.00,WUHU216HW,2013-05-17 10:16:00,
2013-05-17 03:21:00,52.6,46.9,29.95,SSW,203,1.8,5.4,81,0.00,,,0.00,WUHU216HW,2013-05-17 10:21:00,
2013-05-17 03:26:00,52.4,46.7,29.94,West,270,1.8,2.5,81,0.00,,,0.00,WUHU216HW,2013-05-17 10:26:00,
2013-05-17 03:31:00,52.4,47.1,29.94,South,180,1.3,1.8,82,0.00,,,0.00,WUHU216HW,2013-05-17 10:31:00,
2013-05-17 03:36:00,52.2,46.9,29.95,WSW,248,3.1,3.6,82,0.00,,,0.00,WUHU216HW,2013-05-17 10:36:00,
2013-05-17 03:41:00,52.2,46.9,29.95,SSW,203,2.5,3.6,82,0.00,,,0.00,WUHU216HW,2013-05-17 10:41:00,
2013-05-17 03:46:00,52.0,46.7,29.95,SW,225,0.4,3.4,82,0.00,,,0.00,WUHU216HW,2013-05-17 10:46:00,
2013-05-17 03:51:00,51.8,46.8,29.95,SSW,203,1.3,2.9,83,0.00,,,0.00,WUHU216HW,2013-05-17 10:51:00,
2013-05-17 03:56:00,51.8,46.8,29.95,South,180,1.8,2.9,83,0.00,,,0.00,WUHU216HW,2013-05-17 10:56:00,
2013-05-17 04:01:00,51.8,46.8,29.95,WSW,248,1.1,2.2,83,0.00,,,0.00,WUHU216HW,2013-05-17 11:01:00,
2013-05-17 04:06:00,51.8,46.8,29.95,SSW,203,1.3,3.4,83,0.00,,,0.00,WUHU216HW,2013-05-17 11:06:00,
2013-05-17 04:11:00,51.8,47.2,29.95,West,270,0.7,3.4,84,0.00,,,0.00,WUHU216HW,2013-05-17 11:11:00,
2013-05-17 04:16:00,51.7,46.6,29.95,SSW,203,0.4,1.3,83,0.00,,,0.00,WUHU216HW,2013-05-17 11:16:00,
2013-05-17 04:21:00,51.5,46.4,29.95,SSW,203,0.4,1.6,83,0.00,,,0.00,WUHU216HW,2013-05-17 11:21:00,
2013-05-17 04:26:00,51.5,46.4,29.95,WSW,248,0.2,1.8,83,0.00,,,0.00,WUHU216HW,2013-05-17 11:26:00,
2013-05-17 04:31:00,51.5,46.4,29.95,SW,225,0.0,1.8,83,0.00,,,0.00,WUHU216HW,2013-05-17 11:31:00,
2013-05-17 04:36:00,51.1,46.1,29.95,West,270,0.0,1.3,83,0.00,,,0.00,WUHU216HW,2013-05-17 11:36:00,
2013-05-17 04:41:00,50.9,45.9,29.95,NNE,23,0.2,1.3,83,0.00,,,0.00,WUHU216HW,2013-05-17 11:41:00,
2013-05-17 04:46:00,50.9,46.3,29.95,NNE,23,0.4,1.1,84,0.00,,,0.00,WUHU216HW,2013-05-17 11:46:00,
2013-05-17 04:51:00,50.8,45.7,29.94,NE,45,0.4,0.7,83,0.00,,,0.00,WUHU216HW,2013-05-17 11:51:00,
2013-05-17 04:56:00,50.8,45.7,29.94,ENE,68,1.1,1.1,83,0.00,,,0.00,WUHU216HW,2013-05-17 11:56:00,
2013-05-17 05:01:00,50.6,45.9,29.94,ESE,113,0.4,1.1,84,0.00,,,0.00,WUHU216HW,2013-05-17 12:01:00,
2013-05-17 05:06:00,50.4,45.7,29.94,ESE,113,0.4,1.1,84,0.00,,,0.00,WUHU216HW,2013-05-17 12:06:00,
2013-05-17 05:11:00,50.2,45.8,29.94,NE,45,1.1,1.3,85,0.00,,,0.00,WUHU216HW,2013-05-17 12:11:00,
2013-05-17 05:16:00,50.2,45.8,29.94,North,0,0.4,2.5,85,0.00,,,0.00,WUHU216HW,2013-05-17 12:16:00,
2013-05-17 05:21:00,50.0,45.6,29.94,WNW,293,1.1,2.5,85,0.00,,,0.00,WUHU216HW,2013-05-17 12:21:00,
2013-05-17 05:26:00,50.0,45.9,29.94,SSW,203,2.5,3.1,86,0.00,,,0.00,WUHU216HW,2013-05-17 12:26:00,
2013-05-17 05:31:00,50.4,46.3,29.94,SSW,203,1.3,3.1,86,0.00,,,0.00,WUHU216HW,2013-05-17 12:31:00,
2013-05-17 05:36:00,50.6,46.4,29.94,WNW,293,0.4,1.8,86,0.00,,,0.00,WUHU216HW,2013-05-17 12:36:00,
2013-05-17 05:41:00,50.8,46.6,29.94,WNW,293,1.1,1.8,86,0.00,,,0.00,WUHU216HW,2013-05-17 12:41:00,
2013-05-17 05:46:00,50.8,46.6,29.95,East,90,0.2,1.3,86,0.00,,,0.00,WUHU216HW,2013-05-17 12:46:00,
2013-05-17 05:51:00,50.8,46.6,29.94,South,180,0.0,1.1,86,0.00,,,0.00,WUHU216HW,2013-05-17 12:51:00,
2013-05-17 05:56:00,50.6,46.4,29.94,NNE,23,0.0,0.9,86,0.00,,,0.00,WUHU216HW,2013-05-17 12:56:00,
2013-05-17 06:01:00,50.6,46.2,29.95,West,270,1.1,1.1,85,0.00,,,0.00,WUHU216HW,2013-05-17 13:01:00,
2013-05-17 06:06:00,50.6,46.4,29.95,North,0,0.9,2.9,86,0.00,,,0.00,WUHU216HW,2013-05-17 13:06:00,
2013-05-17 06:11:00,50.8,46.6,29.95,WSW,248,1.6,2.9,86,0.00,,,0.00,WUHU216HW,2013-05-17 13:11:00,
2013-05-17 06:16:00,50.8,46.4,29.95,SW,225,0.4,2.5,85,0.00,,,0.00,WUHU216HW,2013-05-17 13:16:00,
2013-05-17 06:21:00,50.8,46.4,29.95,WSW,248,1.1,2.5,85,0.00,,,0.00,WUHU216HW,2013-05-17 13:21:00,
2013-05-17 06:26:00,50.8,46.4,29.95,SSE,158,1.3,1.3,85,0.00,,,0.00,WUHU216HW,2013-05-17 13:26:00,
2013-05-17 06:32:00,50.9,46.5,29.95,WSW,248,1.1,3.4,85,0.00,,,0.00,WUHU216HW,2013-05-17 13:32:00,
2013-05-17 06:37:00,51.1,46.7,29.95,NNE,23,0.2,3.4,85,0.00,,,0.00,WUHU216HW,2013-05-17 13:37:00,
2013-05-17 06:42:00,51.3,46.9,29.95,West,270,0.9,2.2,85,0.00,,,0.00,WUHU216HW,2013-05-17 13:42:00,
2013-05-17 06:47:00,51.5,47.1,29.95,West,270,0.0,1.1,85,0.00,,,0.00,WUHU216HW,2013-05-17 13:47:00,
2013-05-17 06:52:00,51.7,47.0,29.96,ESE,113,0.4,1.8,84,0.00,,,0.00,WUHU216HW,2013-05-17 13:52:00,
2013-05-17 06:57:00,51.7,47.0,29.96,North,0,0.4,1.8,84,0.00,,,0.00,WUHU216HW,2013-05-17 13:57:00,
2013-05-17 07:02:00,51.5,46.8,29.95,NNE,23,0.9,1.8,84,0.00,,,0.00,WUHU216HW,2013-05-17 14:02:00,
2013-05-17 07:07:00,51.7,46.6,29.96,NNE,23,0.7,1.8,83,0.00,,,0.00,WUHU216HW,2013-05-17 14:07:00,
2013-05-17 07:12:00,51.7,46.6,29.96,NE,45,1.1,1.8,83,0.00,,,0.00,WUHU216HW,2013-05-17 14:12:00,
2013-05-17 07:17:00,51.8,47.2,29.96,NNE,23,0.9,1.8,84,0.00,,,0.00,WUHU216HW,2013-05-17 14:17:00,
2013-05-17 07:22:00,52.2,47.5,29.96,East,90,0.4,1.8,84,0.00,,,0.00,WUHU216HW,2013-05-17 14:22:00,
2013-05-17 07:27:00,52.6,47.5,29.97,NNW,338,3.4,3.4,83,0.00,,,0.00,WUHU216HW,2013-05-17 14:27:00,
2013-05-17 07:32:00,52.7,47.7,29.97,NW,315,2.5,3.4,83,0.00,,,0.00,WUHU216HW,2013-05-17 14:32:00,
2013-05-17 07:37:00,52.9,47.6,29.97,WNW,293,0.4,3.1,82,0.00,,,0.00,WUHU216HW,2013-05-17 14:37:00,
2013-05-17 07:42:00,53.3,48.0,29.97,West,270,1.8,2.0,82,0.00,,,0.00,WUHU216HW,2013-05-17 14:42:00,
2013-05-17 07:47:00,53.3,47.6,29.97,WSW,248,0.2,2.0,81,0.00,,,0.00,WUHU216HW,2013-05-17 14:47:00,
2013-05-17 07:52:00,53.5,47.5,29.97,SSE,158,0.9,2.0,80,0.00,,,0.00,WUHU216HW,2013-05-17 14:52:00,
2013-05-17 07:57:00,53.5,47.5,29.97,WNW,293,1.6,2.5,80,0.00,,,0.00,WUHU216HW,2013-05-17 14:57:00,
2013-05-17 08:02:00,53.6,47.7,29.97,ESE,113,0.7,2.5,80,0.00,,,0.00,WUHU216HW,2013-05-17 15:02:00,
2013-05-17 08:07:00,53.8,47.9,29.97,SW,225,0.4,2.0,80,0.00,,,0.00,WUHU216HW,2013-05-17 15:07:00,
2013-05-17 08:12:00,54.4,47.6,29.98,West,270,1.8,1.8,78,0.00,,,0.00,WUHU216HW,2013-05-17 15:12:00,
2013-05-17 08:17:00,55.1,48.3,29.97,South,180,2.5,2.5,78,0.00,,,0.00,WUHU216HW,2013-05-17 15:17:00,
2013-05-17 08:22:00,55.4,48.6,29.98,South,180,1.8,2.5,78,0.00,,,0.00,WUHU216HW,2013-05-17 15:22:00,
2013-05-17 08:27:00,55.8,48.3,29.98,West,270,0.7,3.4,76,0.00,,,0.00,WUHU216HW,2013-05-17 15:27:00,
2013-05-17 08:32:00,56.2,48.6,29.98,WSW,248,1.6,4.7,76,0.00,,,0.00,WUHU216HW,2013-05-17 15:32:00,
2013-05-17 08:37:00,56.5,49.0,29.98,West,270,0.9,5.4,76,0.00,,,0.00,WUHU216HW,2013-05-17 15:37:00,
2013-05-17 08:42:00,56.9,49.0,29.98,West,270,0.9,5.4,75,0.00,,,0.00,WUHU216HW,2013-05-17 15:42:00,
2013-05-17 08:47:00,57.2,49.3,29.98,West,270,2.5,3.4,75,0.00,,,0.00,WUHU216HW,2013-05-17 15:47:00,
2013-05-17 08:52:00,57.6,49.0,29.98,WSW,248,4.0,4.0,73,0.00,,,0.00,WUHU216HW,2013-05-17 15:52:00,
2013-05-17 08:57:00,57.6,49.0,29.98,West,270,1.1,4.0,73,0.00,,,0.00,WUHU216HW,2013-05-17 15:57:00,
2013-05-17 09:02:00,57.6,49.0,29.98,West,270,4.0,5.4,73,0.00,,,0.00,WUHU216HW,2013-05-17 16:02:00,
2013-05-17 09:07:00,57.6,48.6,29.98,West,270,2.0,5.6,72,0.00,,,0.00,WUHU216HW,2013-05-17 16:07:00,
2013-05-17 09:12:00,58.1,49.1,29.98,West,270,5.1,5.6,72,0.00,,,0.00,WUHU216HW,2013-05-17 16:12:00,
2013-05-17 09:17:00,58.5,48.8,29.98,South,180,1.1,5.1,70,0.00,,,0.00,WUHU216HW,2013-05-17 16:17:00,
2013-05-17 09:22:00,58.9,49.1,29.98,WNW,293,4.0,6.3,70,0.00,,,0.00,WUHU216HW,2013-05-17 16:22:00,
2013-05-17 09:27:00,58.9,48.7,29.98,West,270,2.5,6.5,69,0.00,,,0.00,WUHU216HW,2013-05-17 16:27:00,
2013-05-17 09:32:00,58.5,48.3,29.99,WSW,248,7.4,7.4,69,0.00,,,0.00,WUHU216HW,2013-05-17 16:32:00,
2013-05-17 09:37:00,58.7,48.5,29.99,West,270,9.2,9.2,69,0.00,,,0.00,WUHU216HW,2013-05-17 16:37:00,
2013-05-17 09:42:00,59.0,48.5,29.99,West,270,1.1,9.2,68,0.00,,,0.00,WUHU216HW,2013-05-17 16:42:00,
2013-05-17 09:47:00,59.4,49.2,29.99,SW,225,4.5,6.9,69,0.00,,,0.00,WUHU216HW,2013-05-17 16:47:00,
2013-05-17 09:52:00,60.1,49.1,29.99,South,180,3.8,4.9,67,0.00,,,0.00,WUHU216HW,2013-05-17 16:52:00,
2013-05-17 09:57:00,60.5,49.2,29.98,WSW,248,3.1,4.7,66,0.00,,,0.00,WUHU216HW,2013-05-17 16:57:00,
2013-05-17 10:02:00,60.7,48.9,29.98,WSW,248,7.6,7.6,65,0.00,,,0.00,WUHU216HW,2013-05-17 17:02:00,
2013-05-17 10:07:00,61.4,50.0,29.99,WSW,248,1.6,7.6,66,0.00,,,0.00,WUHU216HW,2013-05-17 17:07:00,
2013-05-17 10:12:00,61.6,49.3,29.98,South,180,3.1,6.3,64,0.00,,,0.00,WUHU216HW,2013-05-17 17:12:00,
2013-05-17 10:17:00,61.9,50.1,29.99,SSW,203,3.1,3.4,65,0.00,,,0.00,WUHU216HW,2013-05-17 17:17:00,
2013-05-17 10:22:00,62.5,50.5,29.99,SSE,158,3.1,3.4,65,0.00,,,0.00,WUHU216HW,2013-05-17 17:22:00,
2013-05-17 10:27:00,63.0,50.6,29.99,South,180,2.5,6.3,64,0.00,,,0.00,WUHU216HW,2013-05-17 17:27:00,
2013-05-17 10:32:00,63.2,50.3,29.99,West,270,3.8,6.3,63,0.00,,,0.00,WUHU216HW,2013-05-17 17:32:00,
2013-05-17 10:37:00,63.2,50.3,29.99,WSW,248,4.7,6.9,63,0.00,,,0.00,WUHU216HW,2013-05-17 17:37:00,
2013-05-17 10:42:00,63.5,50.2,29.99,South,180,2.9,8.1,62,0.00,,,0.00,WUHU216HW,2013-05-17 17:42:00,
2013-05-17 10:47:00,63.7,50.1,29.99,SSW,203,6.0,8.1,61,0.00,,,0.00,WUHU216HW,2013-05-17 17:47:00,
2013-05-17 10:52:00,63.5,49.4,29.99,West,270,7.6,11.2,60,0.00,,,0.00,WUHU216HW,2013-05-17 17:52:00,
2013-05-17 10:57:00,63.4,48.8,29.99,WNW,293,4.3,11.2,59,0.00,,,0.00,WUHU216HW,2013-05-17 17:57:00,
2013-05-17 11:02:00,63.7,50.4,30.00,WSW,248,3.4,9.6,62,0.00,,,0.00,WUHU216HW,2013-05-17 18:02:00,
2013-05-17 11:07:00,64.1,49.4,30.00,West,270,5.6,7.4,59,0.00,,,0.00,WUHU216HW,2013-05-17 18:07:00,
2013-05-17 11:12:00,64.3,49.1,30.00,NW,315,3.4,7.4,58,0.00,,,0.00,WUHU216HW,2013-05-17 18:12:00,
2013-05-17 11:17:00,64.4,49.8,30.00,WSW,248,5.4,6.0,59,0.00,,,0.00,WUHU216HW,2013-05-17 18:17:00,
2013-05-17 11:22:00,64.4,48.8,30.00,West,270,5.4,8.5,57,0.00,,,0.00,WUHU216HW,2013-05-17 18:22:00,
2013-05-17 11:27:00,64.4,49.2,30.00,West,270,5.6,9.2,58,0.00,,,0.00,WUHU216HW,2013-05-17 18:27:00,
2013-05-17 11:32:00,64.6,49.4,30.00,West,270,7.2,9.2,58,0.00,,,0.00,WUHU216HW,2013-05-17 18:32:00,
2013-05-17 11:37:00,64.6,50.0,30.00,West,270,4.5,7.6,59,0.00,,,0.00,WUHU216HW,2013-05-17 18:37:00,
2013-05-17 11:42:00,64.6,50.0,30.00,West,270,3.4,7.6,59,0.00,,,0.00,WUHU216HW,2013-05-17 18:42:00,
2013-05-17 11:47:00,65.2,50.0,30.00,WSW,248,3.6,5.4,58,0.00,,,0.00,WUHU216HW,2013-05-17 18:47:00,
2013-05-17 11:52:00,65.3,49.1,30.00,SSW,203,9.2,9.2,56,0.00,,,0.00,WUHU216HW,2013-05-17 18:52:00,
2013-05-17 11:57:00,65.2,49.0,30.00,WSW,248,4.0,9.2,56,0.00,,,0.00,WUHU216HW,2013-05-17 18:57:00,
2013-05-17 12:02:00,65.2,49.5,30.00,West,270,2.5,6.3,57,0.00,,,0.00,WUHU216HW,2013-05-17 19:02:00,
2013-05-17 12:07:00,65.5,49.3,30.00,WSW,248,6.7,6.7,56,0.00,,,0.00,WUHU216HW,2013-05-17 19:07:00,
2013-05-17 12:12:00,65.5,49.9,30.00,SSW,203,3.4,7.6,57,0.00,,,0.00,WUHU216HW,2013-05-17 19:12:00,
2013-05-17 12:17:00,65.9,49.7,30.00,WSW,248,6.9,7.6,56,0.00,,,0.00,WUHU216HW,2013-05-17 19:17:00,
2013-05-17 12:22:00,66.1,49.9,30.00,WNW,293,8.7,8.7,56,0.00,,,0.00,WUHU216HW,2013-05-17 19:22:00,
2013-05-17 12:27:00,66.1,49.9,30.00,NW,315,6.9,8.7,56,0.00,,,0.00,WUHU216HW,2013-05-17 19:27:00,
2013-05-17 12:31:00,66.6,50.4,30.00,West,270,4.5,9.8,56,0.00,,,0.00,WUHU216HW,2013-05-17 19:31:00,
2013-05-17 12:36:00,67.0,49.8,30.00,WSW,248,6.5,10.5,54,0.00,,,0.00,WUHU216HW,2013-05-17 19:36:00,
2013-05-17 12:41:00,66.8,49.6,30.00,SW,225,5.6,10.5,54,0.00,,,0.00,WUHU216HW,2013-05-17 19:41:00,
2013-05-17 12:46:00,67.0,49.8,30.00,WSW,248,5.4,7.6,54,0.00,,,0.00,WUHU216HW,2013-05-17 19:46:00,
2013-05-17 12:51:00,67.1,48.4,30.00,WSW,248,9.2,10.1,51,0.00,,,0.00,WUHU216HW,2013-05-17 19:51:00,
2013-05-17 12:56:00,67.3,50.0,29.99,SSW,203,6.0,10.1,54,0.00,,,0.00,WUHU216HW,2013-05-17 19:56:00,
2013-05-17 13:01:00,67.3,49.2,29.99,SW,225,6.0,6.5,52,0.00,,,0.00,WUHU216HW,2013-05-17 20:01:00,
2013-05-17 13:06:00,67.5,49.2,29.99,WSW,248,8.3,9.6,52,0.00,,,0.00,WUHU216HW,2013-05-17 20:06:00,
2013-05-17 13:11:00,67.7,50.0,29.99,WSW,248,9.4,9.6,53,0.00,,,0.00,WUHU216HW,2013-05-17 20:11:00,
2013-05-17 13:16:00,68.0,49.8,30.00,WNW,293,8.9,9.4,52,0.00,,,0.00,WUHU216HW,2013-05-17 20:16:00,
2013-05-17 13:21:00,68.0,49.8,30.00,WNW,293,3.1,10.7,52,0.00,,,0.00,WUHU216HW,2013-05-17 20:21:00,
2013-05-17 13:26:00,68.0,49.8,30.00,West,270,4.9,10.7,52,0.00,,,0.00,WUHU216HW,2013-05-17 20:26:00,
2013-05-17 13:31:00,68.4,50.6,30.00,WNW,293,3.4,7.8,53,0.00,,,0.00,WUHU216HW,2013-05-17 20:31:00,
2013-05-17 13:36:00,68.6,49.8,30.00,West,270,5.4,7.8,51,0.00,,,0.00,WUHU216HW,2013-05-17 20:36:00,
2013-05-17 13:41:00,68.8,48.9,30.00,West,270,7.8,7.8,49,0.00,,,0.00,WUHU216HW,2013-05-17 20:41:00,
2013-05-17 13:46:00,68.6,49.8,30.00,West,270,3.1,8.5,51,0.00,,,0.00,WUHU216HW,2013-05-17 20:46:00,
2013-05-17 13:51:00,68.8,50.4,30.00,WNW,293,3.6,8.5,52,0.00,,,0.00,WUHU216HW,2013-05-17 20:51:00,
2013-05-17 13:56:00,69.5,49.5,30.00,West,270,7.6,7.6,49,0.00,,,0.00,WUHU216HW,2013-05-17 20:56:00,
2013-05-17 14:01:00,69.5,49.5,30.00,West,270,8.3,8.3,49,0.00,,,0.00,WUHU216HW,2013-05-17 21:01:00,
2013-05-17 14:06:00,69.5,50.0,30.00,West,270,2.5,9.8,50,0.00,,,0.00,WUHU216HW,2013-05-17 21:06:00,
2013-05-17 14:11:00,69.3,48.7,29.99,WSW,248,3.1,9.8,48,0.00,,,0.00,WUHU216HW,2013-05-17 21:11:00,
2013-05-17 14:16:00,69.1,49.1,29.99,WSW,248,8.3,8.3,49,0.00,,,0.00,WUHU216HW,2013-05-17 21:16:00,
2013-05-17 14:21:00,69.5,49.5,30.00,WSW,248,3.6,8.3,49,0.00,,,0.00,WUHU216HW,2013-05-17 21:21:00,
2013-05-17 14:26:00,69.7,48.4,30.00,West,270,2.5,8.5,47,0.00,,,0.00,WUHU216HW,2013-05-17 21:26:00,
2013-05-17 14:31:00,69.8,49.2,30.00,NW,315,2.2,8.5,48,0.00,,,0.00,WUHU216HW,2013-05-17 21:31:00,
2013-05-17 14:36:00,69.8,49.2,30.00,West,270,6.5,11.6,48,0.00,,,0.00,WUHU216HW,2013-05-17 21:36:00,
2013-05-17 14:41:00,69.8,48.6,29.99,West,270,4.0,11.6,47,0.00,,,0.00,WUHU216HW,2013-05-17 21:41:00,
2013-05-17 14:46:00,69.8,49.8,30.00,WSW,248,5.8,8.5,49,0.00,,,0.00,WUHU216HW,2013-05-17 21:46:00,
2013-05-17 14:51:00,69.8,49.8,29.99,WSW,248,6.7,8.5,49,0.00,,,0.00,WUHU216HW,2013-05-17 21:51:00,
2013-05-17 14:56:00,70.0,48.8,30.00,NW,315,1.8,9.2,47,0.00,,,0.00,WUHU216HW,2013-05-17 21:56:00,
2013-05-17 15:01:00,69.5,48.3,30.00,WSW,248,4.3,9.2,47,0.00,,,0.00,WUHU216HW,2013-05-17 22:01:00,
2013-05-17 15:06:00,69.1,48.0,30.00,SW,225,4.3,9.8,47,0.00,,,0.00,WUHU216HW,2013-05-17 22:06:00,
2013-05-17 15:11:00,69.1,48.0,30.00,WNW,293,6.0,9.8,47,0.00,,,0.00,WUHU216HW,2013-05-17 22:11:00,
2013-05-17 15:16:00,69.1,48.0,30.00,NW,315,8.3,8.5,47,0.00,,,0.00,WUHU216HW,2013-05-17 22:16:00,
2013-05-17 15:21:00,68.9,47.8,30.00,WSW,248,1.8,8.5,47,0.00,,,0.00,WUHU216HW,2013-05-17 22:21:00,
2013-05-17 15:26:00,69.1,48.0,30.00,South,180,4.7,8.5,47,0.00,,,0.00,WUHU216HW,2013-05-17 22:26:00,
2013-05-17 15:31:00,69.3,48.2,30.00,WNW,293,9.6,9.6,47,0.00,,,0.00,WUHU216HW,2013-05-17 22:31:00,
2013-05-17 15:36:00,69.3,48.2,30.00,WSW,248,7.4,9.6,47,0.00,,,0.00,WUHU216HW,2013-05-17 22:36:00,
2013-05-17 15:41:00,69.3,48.2,30.00,SSW,203,3.1,8.1,47,0.00,,,0.00,WUHU216HW,2013-05-17 22:41:00,
2013-05-17 15:46:00,69.1,48.0,30.00,West,270,9.2,9.2,47,0.00,,,0.00,WUHU216HW,2013-05-17 22:46:00,
2013-05-17 15:51:00,68.8,46.4,30.00,WSW,248,10.3,10.5,45,0.00,,,0.00,WUHU216HW,2013-05-17 22:51:00,
2013-05-17 15:56:00,68.4,46.2,30.00,WSW,248,8.3,12.5,45,0.00,,,0.00,WUHU216HW,2013-05-17 22:56:00,
2013-05-17 16:01:00,68.4,46.2,30.00,WSW,248,7.2,12.5,45,0.00,,,0.00,WUHU216HW,2013-05-17 23:01:00,
2013-05-17 16:06:00,68.2,45.4,30.00,West,270,6.3,11.0,44,0.00,,,0.00,WUHU216HW,2013-05-17 23:06:00,
2013-05-17 16:11:00,68.0,46.5,30.00,NNW,338,7.4,10.3,46,0.00,,,0.00,WUHU216HW,2013-05-17 23:11:00,
2013-05-17 16:16:00,68.2,46.5,30.00,West,270,9.8,10.3,46,0.00,,,0.00,WUHU216HW,2013-05-17 23:16:00,
2013-05-17 16:21:00,67.7,45.5,30.00,WSW,248,3.1,12.3,45,0.00,,,0.00,WUHU216HW,2013-05-17 23:21:00,
2013-05-17 16:26:00,67.7,45.5,30.00,West,270,4.0,12.3,45,0.00,,,0.00,WUHU216HW,2013-05-17 23:26:00,
2013-05-17 16:31:00,67.9,46.3,30.00,SSW,203,11.0,11.6,46,0.00,,,0.00,WUHU216HW,2013-05-17 23:31:00,
2013-05-17 16:36:00,67.5,46.5,30.00,SW,225,5.8,11.0,47,0.00,,,0.00,WUHU216HW,2013-05-17 23:36:00,
2013-05-17 16:41:00,67.9,46.8,30.00,WSW,248,7.4,7.6,47,0.00,,,0.00,WUHU216HW,2013-05-17 23:41:00,
2013-05-17 16:46:00,68.0,46.5,30.00,WSW,248,10.5,10.5,46,0.00,,,0.00,WUHU216HW,2013-05-17 23:46:00,
2013-05-17 16:51:00,68.0,45.8,30.00,SW,225,6.3,11.4,45,0.00,,,0.00,WUHU216HW,2013-05-17 23:51:00,
2013-05-17 16:56:00,67.7,45.5,30.00,WSW,248,6.5,11.4,45,0.00,,,0.00,WUHU216HW,2013-05-17 23:56:00,
2013-05-17 17:01:00,67.5,45.4,30.00,West,270,13.0,13.0,45,0.00,,,0.00,WUHU216HW,2013-05-18 00:01:00,
2013-05-17 17:06:00,67.1,45.6,30.00,WSW,248,6.3,13.0,46,0.00,,,0.00,WUHU216HW,2013-05-18 00:06:00,
2013-05-17 17:11:00,67.1,46.2,30.00,NW,315,2.2,11.6,47,0.00,,,0.00,WUHU216HW,2013-05-18 00:11:00,
2013-05-17 17:16:00,66.6,45.7,30.00,WSW,248,6.7,9.6,47,0.00,,,0.00,WUHU216HW,2013-05-18 00:16:00,
2013-05-17 17:21:00,66.2,46.0,30.00,West,270,7.4,8.7,48,0.00,,,0.00,WUHU216HW,2013-05-18 00:21:00,
2013-05-17 17:26:00,66.1,46.4,30.00,WNW,293,6.3,7.4,49,0.00,,,0.00,WUHU216HW,2013-05-18 00:26:00,
2013-05-17 17:31:00,65.5,45.8,30.00,North,0,7.8,13.4,49,0.00,,,0.00,WUHU216HW,2013-05-18 00:31:00,
2013-05-17 17:36:00,65.0,45.9,30.00,NNW,338,6.9,13.4,50,0.00,,,0.00,WUHU216HW,2013-05-18 00:36:00,
2013-05-17 17:41:00,64.4,45.8,30.00,SSW,203,4.9,11.2,51,0.00,,,0.00,WUHU216HW,2013-05-18 00:41:00,
2013-05-17 17:46:00,64.3,46.2,30.00,WSW,248,4.3,11.2,52,0.00,,,0.00,WUHU216HW,2013-05-18 00:46:00,
2013-05-17 17:51:00,64.3,46.6,30.00,NW,315,3.4,7.6,53,0.00,,,0.00,WUHU216HW,2013-05-18 00:51:00,
2013-05-17 17:56:00,64.3,46.2,30.00,WSW,248,5.4,6.7,52,0.00,,,0.00,WUHU216HW,2013-05-18 00:56:00,
2013-05-17 18:01:00,63.9,46.4,30.00,WNW,293,3.6,6.7,53,0.00,,,0.00,WUHU216HW,2013-05-18 01:01:00,
2013-05-17 18:06:00,63.7,46.2,30.00,WSW,248,4.7,9.2,53,0.00,,,0.00,WUHU216HW,2013-05-18 01:06:00,
2013-05-17 18:11:00,63.2,46.2,30.00,South,180,3.4,9.2,54,0.00,,,0.00,WUHU216HW,2013-05-18 01:11:00,
2013-05-17 18:16:00,62.6,45.7,30.00,West,270,5.4,8.5,54,0.00,,,0.00,WUHU216HW,2013-05-18 01:16:00,
2013-05-17 18:21:00,62.6,45.7,30.00,SW,225,3.1,8.5,54,0.00,,,0.00,WUHU216HW,2013-05-18 01:21:00,
2013-05-17 18:26:00,62.3,45.8,30.00,SW,225,4.3,9.2,55,0.00,,,0.00,WUHU216HW,2013-05-18 01:26:00,
2013-05-17 18:31:00,61.9,45.6,30.00,South,180,4.7,9.2,55,0.00,,,0.00,WUHU216HW,2013-05-18 01:31:00,
2013-05-17 18:36:00,61.6,45.2,30.00,WSW,248,2.9,6.9,55,0.00,,,0.00,WUHU216HW,2013-05-18 01:36:00,
2013-05-17 18:41:00,61.4,45.6,30.00,WSW,248,4.0,6.9,56,0.00,,,0.00,WUHU216HW,2013-05-18 01:41:00,
2013-05-17 18:46:00,61.2,45.4,30.00,SW,225,7.6,7.6,56,0.00,,,0.00,WUHU216HW,2013-05-18 01:46:00,
2013-05-17 18:51:00,60.8,45.6,30.00,SW,225,2.0,7.6,57,0.00,,,0.00,WUHU216HW,2013-05-18 01:51:00,
2013-05-17 18:56:00,60.7,45.4,30.00,WSW,248,1.8,5.6,57,0.00,,,0.00,WUHU216HW,2013-05-18 01:56:00,
2013-05-17 19:01:00,60.3,45.0,30.01,NW,315,2.5,5.6,57,0.00,,,0.00,WUHU216HW,2013-05-18 02:01:00,
2013-05-17 19:06:00,60.1,44.8,30.01,WNW,293,2.2,4.9,57,0.00,,,0.00,WUHU216HW,2013-05-18 02:06:00,
2013-05-17 19:11:00,59.9,44.6,30.01,WNW,293,3.4,4.9,57,0.00,,,0.00,WUHU216HW,2013-05-18 02:11:00,
2013-05-17 19:16:00,59.8,44.9,30.01,WNW,293,4.3,4.7,58,0.00,,,0.00,WUHU216HW,2013-05-18 02:16:00,
2013-05-17 19:21:00,59.4,45.1,30.01,WSW,248,6.5,6.5,59,0.00,,,0.00,WUHU216HW,2013-05-18 02:21:00,
2013-05-17 19:26:00,59.0,45.2,30.01,WSW,248,2.2,6.5,60,0.00,,,0.00,WUHU216HW,2013-05-18 02:26:00,
2013-05-17 19:31:00,59.0,44.7,30.01,NW,315,1.8,4.3,59,0.00,,,0.00,WUHU216HW,2013-05-18 02:31:00,
2013-05-17 19:36:00,58.7,44.4,30.02,West,270,7.2,7.2,59,0.00,,,0.00,WUHU216HW,2013-05-18 02:36:00,
2013-05-17 19:41:00,58.1,44.4,30.02,SW,225,2.0,7.6,60,0.00,,,0.00,WUHU216HW,2013-05-18 02:41:00,
2013-05-17 19:46:00,57.8,44.0,30.02,South,180,2.0,7.6,60,0.00,,,0.00,WUHU216HW,2013-05-18 02:46:00,
2013-05-17 19:51:00,57.6,44.3,30.02,West,270,3.1,4.0,61,0.00,,,0.00,WUHU216HW,2013-05-18 02:51:00,
2013-05-17 19:56:00,57.2,43.9,30.02,North,0,0.7,4.0,61,0.00,,,0.00,WUHU216HW,2013-05-18 02:56:00,
2013-05-17 20:01:00,57.1,44.2,30.02,ESE,113,0.2,1.1,62,0.00,,,0.00,WUHU216HW,2013-05-18 03:01:00,
2013-05-17 20:06:00,56.9,44.0,30.02,SE,135,0.0,1.1,62,0.00,,,0.00,WUHU216HW,2013-05-18 03:06:00,
2013-05-17 20:11:00,56.5,43.7,30.02,North,0,1.8,1.8,62,0.00,,,0.00,WUHU216HW,2013-05-18 03:11:00,
2013-05-17 20:16:00,56.3,43.9,30.02,SSW,203,0.0,1.8,63,0.00,,,0.00,WUHU216HW,2013-05-18 03:16:00,
2013-05-17 20:21:00,56.0,43.6,30.02,SE,135,2.0,2.0,63,0.00,,,0.00,WUHU216HW,2013-05-18 03:21:00,
2013-05-17 20:26:00,55.8,43.7,30.02,NW,315,0.4,3.4,64,0.00,,,0.00,WUHU216HW,2013-05-18 03:26:00,
2013-05-17 20:31:00,55.6,44.0,30.03,West,270,3.4,3.4,65,0.00,,,0.00,WUHU216HW,2013-05-18 03:31:00,
2013-05-17 20:36:00,55.4,43.8,30.03,WSW,248,4.0,4.9,65,0.00,,,0.00,WUHU216HW,2013-05-18 03:36:00,
2013-05-17 20:41:00,55.3,45.3,30.03,SSW,203,4.5,4.9,69,0.00,,,0.00,WUHU216HW,2013-05-18 03:41:00,
2013-05-17 20:46:00,55.1,44.7,30.03,SSW,203,2.5,4.5,68,0.00,,,0.00,WUHU216HW,2013-05-18 03:46:00,
2013-05-17 20:51:00,54.9,44.6,30.03,WSW,248,2.0,7.4,68,0.00,,,0.00,WUHU216HW,2013-05-18 03:51:00,
2013-05-17 20:56:00,54.7,44.7,30.03,WSW,248,3.8,7.4,69,0.00,,,0.00,WUHU216HW,2013-05-18 03:56:00,
2013-05-17 21:01:00,54.5,45.0,30.03,West,270,1.1,5.1,70,0.00,,,0.00,WUHU216HW,2013-05-18 04:01:00,
2013-05-17 21:06:00,54.4,45.2,30.04,SW,225,1.8,5.1,71,0.00,,,0.00,WUHU216HW,2013-05-18 04:06:00,
2013-05-17 21:11:00,54.2,45.0,30.04,WNW,293,1.1,6.9,71,0.00,,,0.00,WUHU216HW,2013-05-18 04:11:00,
2013-05-17 21:16:00,54.0,45.2,30.04,NNE,23,1.6,6.9,72,0.00,,,0.00,WUHU216HW,2013-05-18 04:16:00,
2013-05-17 21:21:00,53.6,45.2,30.04,West,270,4.7,6.3,73,0.00,,,0.00,WUHU216HW,2013-05-18 04:21:00,
2013-05-17 21:26:00,53.6,45.2,30.04,West,270,2.7,6.3,73,0.00,,,0.00,WUHU216HW,2013-05-18 04:26:00,
2013-05-17 21:31:00,53.5,45.0,30.04,West,270,3.1,5.4,73,0.00,,,0.00,WUHU216HW,2013-05-18 04:31:00,
2013-05-17 21:36:00,53.3,44.8,30.04,WNW,293,0.4,5.4,73,0.00,,,0.00,WUHU216HW,2013-05-18 04:36:00,
2013-05-17 21:41:00,53.1,44.3,30.04,WSW,248,0.4,4.0,72,0.00,,,0.00,WUHU216HW,2013-05-18 04:41:00,
2013-05-17 21:46:00,52.9,44.2,30.04,WNW,293,0.4,1.6,72,0.00,,,0.00,WUHU216HW,2013-05-18 04:46:00,
2013-05-17 21:51:00,52.9,44.2,30.05,North,0,0.4,1.1,72,0.00,,,0.00,WUHU216HW,2013-05-18 04:51:00,
2013-05-17 21:56:00,52.7,44.0,30.05,NNE,23,0.7,1.1,72,0.00,,,0.00,WUHU216HW,2013-05-18 04:56:00,
2013-05-17 22:01:00,52.6,43.8,30.05,NE,45,1.6,1.8,72,0.00,,,0.00,WUHU216HW,2013-05-18 05:01:00,
2013-05-17 22:06:00,52.4,43.7,30.05,East,90,0.9,1.8,72,0.00,,,0.00,WUHU216HW,2013-05-18 05:06:00,
2013-05-17 22:11:00,52.2,43.8,30.05,ESE,113,2.7,2.9,73,0.00,,,0.00,WUHU216HW,2013-05-18 05:11:00,
2013-05-17 22:16:00,52.2,43.8,30.05,NNE,23,1.8,2.9,73,0.00,,,0.00,WUHU216HW,2013-05-18 05:16:00,
2013-05-17 22:21:00,52.0,44.0,30.05,NE,45,0.7,2.5,74,0.00,,,0.00,WUHU216HW,2013-05-18 05:21:00,
2013-05-17 22:26:00,51.8,43.5,30.05,ENE,68,0.4,2.0,73,0.00,,,0.00,WUHU216HW,2013-05-18 05:26:00,
2013-05-17 22:31:00,51.7,43.7,30.05,NNE,23,0.7,1.8,74,0.00,,,0.00,WUHU216HW,2013-05-18 05:31:00,
2013-05-17 22:36:00,51.5,43.5,30.05,North,0,0.0,1.8,74,0.00,,,0.00,WUHU216HW,2013-05-18 05:36:00,
2013-05-17 22:41:00,51.3,43.3,30.05,NW,315,0.0,0.4,74,0.00,,,0.00,WUHU216HW,2013-05-18 05:41:00,
2013-05-17 22:46:00,51.1,43.1,30.05,WNW,293,0.0,0.2,74,0.00,,,0.00,WUHU216HW,2013-05-18 05:46:00,
2013-05-17 22:51:00,50.9,43.3,30.05,SE,135,0.2,1.3,75,0.00,,,0.00,WUHU216HW,2013-05-18 05:51:00,
2013-05-17 22:56:00,50.9,43.7,30.05,ESE,113,1.1,1.3,76,0.00,,,0.00,WUHU216HW,2013-05-18 05:56:00,
2013-05-17 23:01:00,50.8,43.5,30.05,SE,135,1.1,1.1,76,0.00,,,0.00,WUHU216HW,2013-05-18 06:01:00,
2013-05-17 23:06:00,50.8,43.8,30.05,ESE,113,0.0,2.0,77,0.00,,,0.00,WUHU216HW,2013-05-18 06:06:00,
2013-05-17 23:11:00,50.8,43.5,30.05,WNW,293,0.0,2.0,76,0.00,,,0.00,WUHU216HW,2013-05-18 06:11:00,
2013-05-17 23:16:00,50.8,43.8,30.05,SE,135,0.4,1.6,77,0.00,,,0.00,WUHU216HW,2013-05-18 06:16:00,
2013-05-17 23:21:00,50.9,44.3,30.05,SE,135,0.0,1.8,78,0.00,,,0.00,WUHU216HW,2013-05-18 06:21:00,
2013-05-17 23:26:00,51.1,44.5,30.05,South,180,0.0,2.5,78,0.00,,,0.00,WUHU216HW,2013-05-18 06:26:00,
2013-05-17 23:31:00,51.1,44.5,30.05,NNW,338,0.0,2.5,78,0.00,,,0.00,WUHU216HW,2013-05-18 06:31:00,
2013-05-17 23:36:00,51.1,44.5,30.05,North,0,0.4,0.4,78,0.00,,,0.00,WUHU216HW,2013-05-18 06:36:00,
2013-05-17 23:41:00,51.1,44.2,30.05,North,0,0.0,0.4,77,0.00,,,0.00,WUHU216HW,2013-05-18 06:41:00,
2013-05-17 23:46:00,50.9,44.3,30.05,NNE,23,0.7,0.9,78,0.00,,,0.00,WUHU216HW,2013-05-18 06:46:00,
2013-05-17 23:51:00,50.8,44.1,30.05,NE,45,0.2,0.9,78,0.00,,,0.00,WUHU216HW,2013-05-18 06:51:00,
2013-05-17 23:56:00,50.6,43.9,30.05,NE,45,0.0,0.7,78,0.00,,,0.00,WUHU216HW,2013-05-18 06:56:00,